FENGYUN 1C DEB

Satellite information

Favourite Embed

Satellite Type and Status

DEBRISIN ORBIT

Key statistics

Satellite FENGYUN 1C DEB at a glance.

Uptime

9619

Days in orbit

Revolutions

≈ 15.2

Per day

Orbit

SSO

Sun Synchronous Orbit

Inclination

98.5

Latest

Satellite identification and parameters

Extended collection of information and parameters for FENGYUN 1C DEB.

Object identification

Identified? True

Debris? True

Object name: FENGYUN 1C DEB

International designator: 1999-025BCE

Object number (NORAD): 30988

Object ID (CCSDS): 30988

Country: PEOPLES REPUBLIC OF CHINA (PRC)

Current information (Y/N): Y

RCS size: SMALL

Orbital parameters

Period: 95.027 minutes

Inclination: 98.5304 deg

SMA: 6898.045 km

Apoapsis: 613.828 km

Periapsis: 425.991 km

RAAN: 185.5938 deg

Eccentricy: 0.01361524

Argument of periapsis: 304.6883 deg

Mean anomaly: 54.1579 deg

Mean motion: 15.1535277 rev/day

Mean motion (dot): 0.00037435 rev/day2

B* drag term: 0.0015657283 1/REarth

Two-line elements (TLE)

Creation date: Sept. 8, 2025, 3:16 a.m.

Reference frame: TEME

Reference center: EARTH

Epoch: Sept. 7, 2025, 7 p.m. UTC

TLE line 0: 0 FENGYUN 1C DEB

TLE line 1: 1 30988U 99025BCE 25250.79220267 .00037435 00000-0 15657-2 0 9990

TLE line 2: 2 30988 98.5304 185.5938 0136152 304.6883 54.1579 15.15352770981069

Live tracking on map

Real-time ground track for satellite FENGYUN 1C DEB.

In-orbit conjunctions

A list of the most updated potential collisions computed for object FENGYUN 1C DEB.

Target Orbit TCA Probability of collision Miss distance Type
COSMOS 2058 LEO 2025-07-05 05:44:38 0.0001310689 448.0 (m) PAYLOAD
OBJECT L SSO 2025-04-02 08:02:05 0.000205997 854.0 (m) UNKNOWN

Associated space launch

Chinese polar orbiting meteorological satellite

FENGYUN 1C DEB was lifted into orbit during the mission ‘Long March 4B | Feng Yun 1C’, on board a Long March 4B space rocket.

The launch took place on May 10, 1999, 1:33 a.m. from Launch Complex 7.

For more information about the launch, click the button.

Launch to space Long March 4B | Feng Yun 1C
Long March 4B | Feng Yun 1C

Agency: N/A

Status: Launch Successful

Launch date: May 10, 1999, 1:33 a.m. UTC

Rocket: Long March 4B

Launch pad: Launch Complex 7

Location: Taiyuan Satellite Launch Center, People's Republic of China

...

Latest news about this satellite

There are no fresh news available about this satellite. Check back as we update our databases every day.


Newsletter sign-up

Weekly statistics, charts and insights to help you stay on top of the space industry.